Location: ?th?r Mad?nat Amb?s
(24.4520°N, 32.9283°E)
Time: 11:19:10
(UTC+00:00)

Daily predictions for brighter satellites

Satellite Brightness Start Highest point End
(mag) Time Altitude Azimuth Time Altitude Azimuth Time Altitude Azimuth
Meteor 1-27 Rocket 3.7 16:06:21 10° N 16:11:54 87° E 16:17:30 10° S
Cosmos 1707 Rocket 3.8 16:11:23 10° N 16:15:35 46° E 16:19:43 10° SSE
Cosmos 2219 Rocket 3.7 16:13:57 10° SE 16:16:49 14° E 16:19:41 10° ENE
Okean-O 3.3 16:17:25 10° SE 16:21:23 33° ENE 16:25:21 10° N
SL-16 R/B 3.2 16:15:59 10° SW 16:21:29 52° WNW 16:26:59 10° N
TSX-5 3.2 16:18:23 10° NNW 16:21:50 64° ENE 16:24:56 10° SSE
Cosmos 1939 Rocket 4.4 16:19:43 10° S 16:23:20 39° W 16:26:57 10° NNW
Cosmos 2181 Rocket 4.4 16:17:00 10° N 16:23:23 75° W 16:29:41 10° S
CZ-4 R/B 1.5 16:22:33 10° SSE 16:26:14 47° ENE 16:29:55 10° N
CZ-4B R/B 4.2 16:24:19 10° NNW 16:26:39 20° WNW 16:29:00 10° SW
ARGOS 3.8 16:23:17 10° SE 16:28:05 33° ENE 16:32:53 10° N
Palapa 6 Rocket 4.4 16:22:36 10° WSW 16:29:42 74° S 16:36:50 14° E
Cosmos 2322 4.5 16:28:05 10° SSE 16:33:00 30° ESE 16:37:55 10° NE
Okean 1 4.0 16:32:21 10° NNE 16:36:00 33° E 16:39:39 10° SSE
Cosmos 2263 Rocket 2.1 16:30:35 10° NNW 16:36:06 66° ENE 16:41:37 10° SSE
SJ-11-01 4.3 16:33:08 10° SSE 16:37:40 54° ENE 16:42:13 10° N
Delta 7925 Rocket 3.2 16:33:39 10° W 16:38:27 76° N 16:41:56 17° ENE
Cosmos 2237 4.4 16:32:54 10° SSW 16:38:37 78° WNW 16:44:21 10° NNE
ATLAS CENTAUR R/B 2.2 16:36:58 10° SW 16:40:30 44° WNW 16:43:59 10° N
Cosmos 1470 Rocket 3.6 16:36:55 10° S 16:41:23 87° E 16:45:52 10° N
GPS 2-14 Rocket1 3.2 16:39:26 10° WSW 16:43:05 44° S 16:45:22 20° ESE
IRS-P2 Rocket 4.5 16:42:41 10° SSE 16:47:50 68° ENE 16:53:01 10° N
Cosmos 1515 3.8 16:44:15 10° N 16:47:58 50° E 16:51:39 10° SSE
Meteor 2-12 Rocket 4.4 16:44:42 10° S 16:50:44 89° WSW 16:56:50 10° N
IRS-1C Rocket 4.4 16:45:31 10° S 16:50:45 71° WSW 16:56:00 10° NNW
CZ-2C R/B 2.6 16:46:00 10° NNE 16:51:26 89° E 16:56:43 10° SSW
SWIFT 3.0 16:47:59 10° WSW 16:51:56 41° S 16:53:59 24° ESE
H-2A R/B 2.2 16:47:05 10° S 16:52:29 85° WSW 16:57:57 10° NNW
CSL-04 Rocket 3.8 16:53:17 10° SSE 16:58:40 53° ENE 17:04:02 10° N
CSL-04 Debris 4.2 16:53:26 10° SSE 16:58:43 58° ENE 17:04:03 10° N
USA 234 4.4 16:54:12 10° NNE 17:00:13 41° NW 17:06:14 10° WSW
Lacrosse 5 rocket 4.3 16:58:49 10° W 17:01:14 15° WSW 17:03:35 10° SSW
Meteor 1-5 Rocket 4.0 16:56:05 10° S 17:01:18 65° E 17:06:37 10° NNE
Cosmos 1486 Rocket 4.1 16:56:27 10° N 17:01:37 54° ENE 17:06:48 10° SSE
Cosmos 1933 Rocket 3.6 16:58:07 10° S 17:02:26 82° W 17:06:48 10° N
Cosmos 968 Rocket 3.4 16:57:31 10° N 17:02:45 66° ENE 17:07:57 10° SSE
Yuri Rocket 4.5 16:54:24 10° WNW 17:03:22 72° SSW 17:07:39 23° ESE
Cosmos 2333 4.1 16:57:53 10° S 17:03:27 72° ESE 17:09:05 10° NNE
DMSP B5D2-2 3.9 17:01:51 10° NNE 17:07:05 79° ESE 17:12:15 10° S
APEX 2.2 17:04:42 10° NNW 17:07:23 88° W 17:07:40 70° SSE
Cosmos 1666 2.5 17:06:50 10° S 17:10:29 63° E 17:14:09 10° NNE
Cosmos 1844 Rocket 4.1 17:07:18 10° NNE 17:10:05 20° NE 17:10:05 20° NE
Cosmos 2360 Rocket 3.4 17:07:05 10° SW 17:12:24 43° WNW 17:17:45 10° N
Nadezhda 3 Rocket 4.1 17:10:20 10° N 17:16:43 82° W 17:23:04 10° S
Cosmos 1862 Rocket 4.3 17:13:28 10° NNW 17:17:51 55° W 17:22:11 10° S
Cosmos 2242 Rocket 4.3 17:14:12 10° N 17:17:15 35° NE 17:17:15 35° NE
Cosmos 2333 Rocket 2.1 17:13:06 10° SSW 17:18:44 77° ESE 17:24:25 10° NNE
YAOGAN 1 4.1 17:15:44 10° SSW 17:19:43 37° W 17:23:43 10° NNW
NOSS 3-2 (A) 3.7 17:15:05 10° S 17:19:19 36° SE 17:19:19 36° SE
Meteor 1-19 Rocket 4.4 17:14:27 10° N 17:20:17 75° W 17:25:55 10° S
GP-B 3.2 17:18:42 10° S 17:23:06 74° W 17:27:32 10° N
GPS 2-12 Rocket1 4.2 17:21:37 10° SW 17:25:48 30° SSE 17:25:56 30° SSE
Meteor 2-4 Rocket 3.7 17:23:29 10° N 17:29:22 72° E 17:35:16 10° SSE
Lacrosse 4 Rocket 1.4 17:25:51 10° SSW 17:30:07 81° WNW 17:31:08 52° N
ATLAS 2A CENTAUR R/B 4.3 16:29:02 10° W 17:31:43 84° SSW 17:38:12 35° ESE
Helios 1A Rocket 4.0 17:29:58 10° S 17:33:50 43° W 17:37:43 10° NNW
DELTA 2 R/B (1) 4.2 17:31:25 10° WSW 17:36:46 48° NNW 17:38:32 36° NNE
Cosmos 1503 Rocket 4.0 17:33:10 10° N 17:37:41 61° NNE 17:37:41 61° NNE
SL-8 Rocket 4.2 17:37:07 10° SSW 17:43:21 70° W 17:49:33 10° N
H-2A R/B 3.8 17:40:23 10° SW 17:44:11 17° S 17:44:11 17° S
Hubble Space Telescope 2.0 17:42:07 10° WSW 17:44:44 37° SW 17:44:44 37° SW
SME Rocket 4.0 17:40:28 10° N 17:46:48 63° WNW 17:51:10 10° SSW
Meteor 1-11 Rocket 3.7 17:42:16 10° S 17:48:05 81° W 17:53:48 10° N
COSMOS 2428 2.7 17:42:52 10° SSW 17:48:33 79° WNW 17:50:33 42° N
CENTAUR R/B 4.3 17:44:18 10° S 17:44:32 11° S 17:44:32 11° S
FUSE 3.9 17:44:12 10° W 17:49:17 79° WNW 17:49:17 79° WNW
Cosmos 44 Rocket 3.8 17:49:17 10° NNW 17:53:23 56° NNW 17:53:23 56° NNW
Cosmos 2366 rocket 4.3 17:51:28 10° SSW 17:57:39 66° W 18:03:56 10° N
Cosmos 2219 Rocket 3.0 17:54:54 10° SW 18:00:14 47° WNW 18:04:10 18° N
Delta 2 Rocket 3.8 17:54:29 10° W 18:00:13 78° WNW 18:00:13 78° WNW
Palapa 6 Rocket 4.4 18:11:30 10° W 18:18:42 74° SW 18:18:42 74° SW
Centaur AC-64 4.3 18:17:06 10° W 18:36:27 64° WSW 18:36:27 64° WSW
